Location: Newark
(44.4156°N, 12.1972°E)
Time: 15:53:10
(UTC+00:00)

STARLINK-1083 - Pass Details

Date: 02 February 2020
Orbit: 349 x 351 km, 53.0° (Epoch: 18 February)

Event Time Altitude Azimuth Distance (km) Brightness Sun altitude
Rises 17:57:17 0° 291° (WNW) 2,164 7.8 -17.4°
Reaches altitude 10° 17:59:44 10° 270° (W) 1,317 6.8 -17.8°
Maximum altitude 18:01:44 17° 227° (SW) 990 5.6 -18.2°
Drops below altitude 10° 18:03:43 10° 184° (S) 1,311 5.7 -18.5°
Enters shadow 18:04:39 - 173° (S) 1,602 6.0 -18.7°
